Location: Newark
(9.4667°S, 159.8167°E)
Time: 15:55:27
(UTC+00:00)

Courier 1B Rocket - Pass Details

Date: 29 November 2019
Orbit: 921 x 1202 km, 28.2° (Epoch: 14 December)

Event Time Altitude Azimuth Distance (km) Brightness Sun altitude
Rises 14:34:22 0° 235° (SW) 4,068 - -52.6°
Reaches altitude 10° 14:38:26 10° 216° (SW) 3,069 - -52.0°
Maximum altitude 14:43:13 17° 177° (S) 2,496 - -51.4°
Exits shadow 14:45:35 15° 154° (SSE) 2,612 7.6 -51.0°
Drops below altitude 10° 14:47:49 10° 137° (SE) 2,949 8.0 -50.7°
Sets 14:51:37 0° 118° (ESE) 3,846 8.7 -50.1°
